Find Kosmos-574

NORAD ID: 6707 Int'l Des: 1973-042 Owner: VMF Country: SU operational
LEOCIRCULARPOLAR

Current View

Loading 3D Globe...

About Kosmos-574

Kosmos-574 (NORAD 6707) is a satellite by VMF of SU. It operates in LEO, CIRCULAR, POLAR orbit

Upcoming Passes

Passes for default location (London). Set your location on the main map for personalized predictions.

Altitude History

Loading altitude history...

Two-Line Element Set

1 6707U 73042A 26195.08629036 .00000029 00000-0 14835-4 0 9999
2 6707 82.9499 173.9053 0021481 169.3106 263.2028 13.72424057 94363
Epoch: Jul 14, 2026 • Age: 15 hours

Current Status

Altitude 1022.3 km
Apogee / Perigee N/A
Velocity 7.33 km/s
Sub-Earth Point -48.04°S, 25.47°W
Type other

Most Searched